Showing default

DRAGRACER 2(AUGURY), 46955

Orbit data source: Space-Track

DRAGRACER 2(AUGURY), 46955 is a payload satellite owned by TriSept (US) in SSO that was launched on Fri, 20 Nov 2020 UTC via an ELECTRON launch vehicle from the Rocket Lab Launch Complex (RLLC). Payload-class satellites include a variety of spacecraft equipped with specific instruments for various scientific and technological missions. These include communications satellites like Starlink; space stations such as the ISS; scientific satellites like the Hubble; Earth observation satellites from companies like Planet Labs, Umbra, and HawkEye 360; GPS; miniature CubeSats for education and research; and military/defense satellites.

Loading next visibility...
Identifier
46955, 2020-085AC
Orbit
SSO
Country
Flag of USUS
Related business
Manufacturer
Millenium ES
Mission
Operational Commercial Technology
Bus & Motor
CUBESAT 6U, Unknown motor
Mass
12 kg wet, 12 kg dry
Launch date (UTC)
2020-11-20 (5 years ago)
Launch vehicle
ELECTRON
Launch site
Rocket Lab Launch Complex (RLLC)
Object type
Payload
Rocket body
Debris
Shape & HBR
Box, Unknown HBR
Radar Cross Section
0.080 m², Medium (>0.1 m² and < 1m²)

Expand to show TLE details & history
Last TLE update: 14 hours ago

TLE from 14 hours ago
0 DRAGRACER 2(AUGURY)
1 46955U 20085AC  26033.49562284  .00031563  00000-0  36535-3 0  9991
2 46955  97.5819 219.1969 0006524  50.3070 309.8761 15.61771358290783
Epoch: 2026-02-02T11:53Z
TLE epoch observation values (Epoch: 2026-02-02T11:53:41.813Z)
Latitude
-0.00007°
Longitude
-91.9174°
Altitude
382.855 km
Speed
7.682 km/s
True Right ascension
14h 36m 47s
True Declination
0° 00' 00"
Sunlit
Object was in daylight at epoch
Visualization orbit readout
Latitude
Unknown
Longitude
Unknown
Altitude
Unknown
Speed
Unknown
Apparent Right ascension
Unknown
Apparent Declination
Unknown
Sunlit
N/A
Visualization observer readout
Local Sidereal Time
03:47:30
Azimuth
Unknown
Elevation
Unknown
Doppler factor
Unknown
Orbital elements
Apogee altitude
383.867 km
Perigee altitude
375.05 km
Semi-major axis
6,757.595 km
Eccentricity
0.00065
Inclination
97.5819°
RAAN
219.1969°
Arg. of periapsis
50.307°
True anomaly
309.8187°
Mean anomaly
309.8761°
Eccentric anomaly
309.8474°
Mean motion
3.9071 °/min
Orbital period
92.14 mins
BSTAR
0.00036535
Loading maneuver chart data...
Computing Atmospheric mass density...

Documentation

Showing up to 5 results
|